Location: *
(50.3440°N, 18.6237°E)
Time: 03:03:44
(UTC+00:00)

Helios 1A Rocket - Visible Passes

Search period start: 14 April 2021 00:00
Search period end: 24 April 2021 00:00
Orbit: 563 x 585 km, 98.3° (Epoch: 13 April)

Date Brightness Start Highest point End Pass type
(mag) Time Alt. Az. Time Alt. Az. Time Alt. Az.
14 Apr 3.8 18:17:21 10° S 18:21:19 52° W 18:25:20 10° NNW visible
15 Apr 4.0 18:20:31 10° S 18:24:27 48° W 18:28:27 10° NNW visible
16 Apr 4.1 18:23:41 10° S 18:27:35 45° W 18:31:34 10° NNW visible
17 Apr 4.2 18:26:51 10° S 18:30:44 42° W 18:34:40 10° NNW visible
18 Apr 4.3 18:30:02 10° S 18:33:52 40° W 18:37:46 10° NNW visible
19 Apr 4.5 18:33:13 10° SSW 18:37:01 37° W 18:40:52 10° NNW visible
20 Apr 4.6 18:36:24 10° SSW 18:40:09 35° W 18:43:58 10° NNW visible
21 Apr 4.7 18:39:35 10° SSW 18:43:18 33° W 18:47:03 10° NNW visible
22 Apr 4.8 18:42:47 10° SSW 18:46:27 31° W 18:50:09 10° NNW visible
23 Apr 4.9 18:46:00 10° SSW 18:49:35 29° W 18:53:14 10° NW visible
